Time,TemperatureF,DewpointF,PressureIn,WindDirection,WindDirectionDegrees,WindSpeedMPH,WindSpeedGustMPH,Humidity,HourlyPrecipIn,Conditions,Clouds,dailyrainin,SoftwareType,DateUTC
2013-07-31 00:00:00,55.8,54.3,28.88,West,270,0.0,0.0,95,0.00,,CLR,0.00,VWS V14.01,2013-07-31 07:00:00,
2013-07-31 00:05:00,55.4,54.0,28.88,West,270,0.0,0.0,95,0.00,,CLR,0.00,VWS V14.01,2013-07-31 07:05:00,
2013-07-31 00:10:00,55.4,54.0,28.88,West,270,0.0,0.0,95,0.00,,CLR,0.00,VWS V14.01,2013-07-31 07:10:00,
2013-07-31 00:15:00,55.4,54.0,28.88,West,270,0.0,0.0,95,0.00,,CLR,0.00,VWS V14.01,2013-07-31 07:15:00,
2013-07-31 00:20:00,55.2,53.8,28.88,NNE,22,1.3,1.3,95,0.00,,CLR,0.00,VWS V14.01,2013-07-31 07:20:00,
2013-07-31 00:25:00,55.0,53.6,28.88,NNW,338,0.0,0.0,95,0.00,,CLR,0.00,VWS V14.01,2013-07-31 07:25:00,
2013-07-31 00:30:00,54.9,53.7,28.91,WSW,248,0.0,0.0,96,0.00,,CLR,0.00,VWS V14.01,2013-07-31 07:30:00,
2013-07-31 00:35:00,54.9,53.7,28.91,West,270,0.0,0.0,96,0.00,,CLR,0.00,VWS V14.01,2013-07-31 07:35:00,
2013-07-31 00:40:00,54.9,53.7,28.91,West,270,0.0,0.0,96,0.00,,CLR,0.00,VWS V14.01,2013-07-31 07:40:00,
2013-07-31 00:45:00,54.5,53.4,28.91,West,270,0.0,0.0,96,0.00,,CLR,0.00,VWS V14.01,2013-07-31 07:45:00,
2013-07-31 00:50:00,54.7,53.6,28.91,West,270,0.0,0.0,96,0.00,,CLR,0.00,VWS V14.01,2013-07-31 07:50:00,
2013-07-31 00:55:00,54.5,53.4,28.91,West,270,0.0,0.0,96,0.00,,CLR,0.00,VWS V14.01,2013-07-31 07:55:00,
2013-07-31 01:00:00,54.5,53.4,28.88,West,270,0.0,0.0,96,0.00,,CLR,0.00,VWS V14.01,2013-07-31 08:00:00,
2013-07-31 01:05:00,54.5,53.4,28.88,West,270,0.0,0.0,96,0.00,,CLR,0.00,VWS V14.01,2013-07-31 08:05:00,
2013-07-31 01:10:00,54.5,53.4,28.88,NNW,338,0.0,0.0,96,0.00,,CLR,0.00,VWS V14.01,2013-07-31 08:10:00,
2013-07-31 01:15:00,54.5,53.4,28.88,WNW,292,0.0,0.0,96,0.00,,CLR,0.00,VWS V14.01,2013-07-31 08:15:00,
2013-07-31 01:20:00,54.3,53.2,28.88,WNW,292,0.0,0.0,96,0.00,,CLR,0.00,VWS V14.01,2013-07-31 08:20:00,
2013-07-31 01:25:00,54.3,53.2,28.88,WNW,292,0.0,0.0,96,0.00,,CLR,0.00,VWS V14.01,2013-07-31 08:25:00,
2013-07-31 01:30:00,54.1,53.0,28.88,WNW,292,0.0,0.0,96,0.00,,OVC009,0.00,VWS V14.01,2013-07-31 08:30:00,
2013-07-31 01:35:00,54.1,53.0,28.88,WNW,292,0.0,0.0,96,0.00,,OVC009,0.00,VWS V14.01,2013-07-31 08:35:00,
2013-07-31 01:40:00,54.3,53.2,28.88,WNW,292,0.0,0.0,96,0.00,,OVC009,0.00,VWS V14.01,2013-07-31 08:40:00,
2013-07-31 01:45:00,54.1,53.0,28.88,WNW,292,0.0,0.0,96,0.00,,OVC009,0.00,VWS V14.01,2013-07-31 08:45:00,
2013-07-31 01:50:00,54.1,53.0,28.88,West,270,0.0,0.0,96,0.00,,OVC009,0.00,VWS V14.01,2013-07-31 08:50:00,
2013-07-31 01:55:00,54.1,53.3,28.88,West,270,0.0,0.0,97,0.00,,OVC009,0.00,VWS V14.01,2013-07-31 08:55:00,
2013-07-31 02:00:00,54.3,53.5,28.88,West,270,0.0,0.0,97,0.00,,OVC009,0.00,VWS V14.01,2013-07-31 09:00:00,
2013-07-31 02:05:00,54.3,53.5,28.88,West,270,0.0,0.0,97,0.00,,OVC007,0.00,VWS V14.01,2013-07-31 09:05:00,
2013-07-31 02:10:00,54.3,53.5,28.88,West,270,0.0,0.0,97,0.00,,OVC007,0.00,VWS V14.01,2013-07-31 09:10:00,
2013-07-31 02:15:00,54.5,53.7,28.88,West,270,0.0,0.0,97,0.00,,OVC007,0.00,VWS V14.01,2013-07-31 09:15:00,
2013-07-31 02:20:00,54.3,53.5,28.88,West,270,0.0,0.0,97,0.00,,OVC007,0.00,VWS V14.01,2013-07-31 09:20:00,
2013-07-31 02:25:00,54.3,53.5,28.88,West,270,0.0,0.0,97,0.00,,OVC007,0.00,VWS V14.01,2013-07-31 09:25:00,
2013-07-31 02:30:00,54.3,53.5,28.88,West,270,0.0,0.0,97,0.00,,OVC007,0.00,VWS V14.01,2013-07-31 09:30:00,
2013-07-31 02:35:00,54.1,53.3,28.88,West,270,0.0,0.0,97,0.00,,OVC007,0.00,VWS V14.01,2013-07-31 09:35:00,
2013-07-31 02:40:00,54.1,53.3,28.88,West,270,0.0,0.0,97,0.00,,OVC007,0.00,VWS V14.01,2013-07-31 09:40:00,
2013-07-31 02:45:00,54.1,53.3,28.88,West,270,0.0,0.0,97,0.00,,OVC007,0.00,VWS V14.01,2013-07-31 09:45:00,
2013-07-31 02:50:00,54.1,53.3,28.88,West,270,0.0,0.0,97,0.00,,OVC007,0.00,VWS V14.01,2013-07-31 09:50:00,
2013-07-31 02:55:00,54.1,53.3,28.88,West,270,0.0,0.0,97,0.00,,OVC007,0.00,VWS V14.01,2013-07-31 09:55:00,
2013-07-31 03:00:00,54.0,53.1,28.88,West,270,0.0,0.0,97,0.00,,OVC007,0.00,VWS V14.01,2013-07-31 10:00:00,
2013-07-31 03:05:00,53.8,53.0,28.88,West,270,0.0,0.0,97,0.00,,OVC007,0.00,VWS V14.01,2013-07-31 10:05:00,
2013-07-31 03:10:00,53.8,53.0,28.88,West,270,0.0,0.0,97,0.00,,OVC007,0.00,VWS V14.01,2013-07-31 10:10:00,
2013-07-31 03:15:00,53.8,53.0,28.88,West,270,0.0,0.0,97,0.00,,OVC007,0.00,VWS V14.01,2013-07-31 10:15:00,
2013-07-31 03:20:00,53.8,53.0,28.88,West,270,0.0,0.0,97,0.00,,OVC007,0.00,VWS V14.01,2013-07-31 10:20:00,
2013-07-31 03:25:00,53.6,52.8,28.88,West,270,0.0,0.0,97,0.00,,OVC007,0.00,VWS V14.01,2013-07-31 10:25:00,
2013-07-31 03:30:00,53.6,52.8,28.88,West,270,0.0,0.0,97,0.00,,OVC007,0.00,VWS V14.01,2013-07-31 10:30:00,
2013-07-31 03:35:00,53.4,52.9,28.88,West,270,0.0,0.0,98,0.00,,OVC007,0.00,VWS V14.01,2013-07-31 10:35:00,
2013-07-31 03:40:00,53.4,52.9,28.88,West,270,0.0,0.0,98,0.00,,OVC007,0.00,VWS V14.01,2013-07-31 10:40:00,
2013-07-31 03:45:00,53.2,52.7,28.88,West,270,0.0,0.0,98,0.00,,OVC007,0.00,VWS V14.01,2013-07-31 10:45:00,
2013-07-31 03:50:00,53.2,52.7,28.88,West,270,0.0,0.0,98,0.00,,OVC007,0.00,VWS V14.01,2013-07-31 10:50:00,
2013-07-31 03:55:00,53.2,52.7,28.88,West,270,0.0,0.0,98,0.00,,OVC007,0.00,VWS V14.01,2013-07-31 10:55:00,
2013-07-31 04:00:00,53.1,52.5,28.88,West,270,0.0,0.0,98,0.00,,OVC007,0.00,VWS V14.01,2013-07-31 11:00:00,
2013-07-31 04:05:00,53.1,52.5,28.88,West,270,0.0,0.0,98,0.00,,,0.00,VWS V14.01,2013-07-31 11:05:00,
2013-07-31 04:10:00,53.1,52.5,28.88,West,270,0.0,0.0,98,0.00,,,0.00,VWS V14.01,2013-07-31 11:10:00,
2013-07-31 04:15:00,53.2,52.7,28.88,West,270,0.0,0.0,98,0.00,,,0.00,VWS V14.01,2013-07-31 11:15:00,
2013-07-31 04:20:00,53.4,52.9,28.88,West,270,0.0,0.0,98,0.00,,,0.00,VWS V14.01,2013-07-31 11:20:00,
2013-07-31 04:25:00,53.6,53.0,28.88,West,270,0.0,0.0,98,0.00,,,0.00,VWS V14.01,2013-07-31 11:25:00,
2013-07-31 04:30:00,53.8,53.2,28.88,West,270,0.0,0.0,98,0.00,,,0.00,VWS V14.01,2013-07-31 11:30:00,
2013-07-31 04:35:00,54.0,53.4,28.88,West,270,0.0,0.0,98,0.00,,,0.00,VWS V14.01,2013-07-31 11:35:00,
2013-07-31 04:40:00,54.1,53.6,28.88,West,270,0.0,0.0,98,0.00,,,0.00,VWS V14.01,2013-07-31 11:40:00,
2013-07-31 04:45:00,54.1,53.6,28.88,West,270,0.0,0.0,98,0.00,,,0.00,VWS V14.01,2013-07-31 11:45:00,
2013-07-31 04:50:00,54.1,53.6,28.88,West,270,0.0,0.0,98,0.00,,,0.00,VWS V14.01,2013-07-31 11:50:00,
2013-07-31 04:55:00,54.1,53.6,28.88,West,270,0.0,0.0,98,0.00,,,0.00,VWS V14.01,2013-07-31 11:55:00,
2013-07-31 05:00:00,54.3,53.8,28.88,West,270,0.0,0.0,98,0.00,,,0.00,VWS V14.01,2013-07-31 12:00:00,
2013-07-31 05:05:00,54.3,53.8,28.88,West,270,0.0,0.0,98,0.00,,,0.00,VWS V14.01,2013-07-31 12:05:00,
2013-07-31 05:09:00,54.1,53.6,28.88,West,270,0.0,0.0,98,0.00,,,0.00,VWS V14.01,2013-07-31 12:09:00,
2013-07-31 05:14:00,54.0,53.4,28.88,West,270,0.0,0.0,98,0.00,,,0.00,VWS V14.01,2013-07-31 12:14:00,
2013-07-31 05:15:00,54.0,53.4,28.88,West,270,0.0,0.0,98,0.00,,,0.00,VWS V14.01,2013-07-31 12:15:00,
2013-07-31 05:20:00,54.0,53.4,28.88,West,270,0.0,0.0,98,0.00,,,0.00,VWS V14.01,2013-07-31 12:20:00,
2013-07-31 05:25:00,54.1,53.6,28.88,West,270,0.0,0.0,98,0.00,,,0.00,VWS V14.01,2013-07-31 12:25:00,
2013-07-31 05:30:00,54.3,53.8,28.88,West,270,0.0,0.0,98,0.00,,,0.00,VWS V14.01,2013-07-31 12:30:00,
2013-07-31 05:35:00,54.5,54.0,28.88,West,270,0.0,0.0,98,0.00,,OVC006,0.00,VWS V14.01,2013-07-31 12:35:00,
2013-07-31 05:40:00,54.7,54.1,28.88,West,270,0.0,0.0,98,0.00,,OVC006,0.00,VWS V14.01,2013-07-31 12:40:00,
2013-07-31 05:45:00,54.9,54.3,28.88,West,270,0.0,0.0,98,0.00,,OVC006,0.00,VWS V14.01,2013-07-31 12:45:00,
2013-07-31 05:50:00,55.0,54.5,28.88,West,270,0.0,0.0,98,0.00,,OVC006,0.00,VWS V14.01,2013-07-31 12:50:00,
2013-07-31 05:54:00,55.2,54.7,28.88,WSW,248,0.0,0.0,98,0.00,,OVC006,0.00,VWS V14.01,2013-07-31 12:54:00,
2013-07-31 05:59:00,55.6,55.0,28.88,WSW,248,0.0,0.0,98,0.00,,OVC006,0.00,VWS V14.01,2013-07-31 12:59:00,
2013-07-31 06:04:00,55.8,55.2,28.88,WSW,248,0.0,0.0,98,0.00,,OVC006,0.00,VWS V14.01,2013-07-31 13:04:00,
2013-07-31 06:09:00,55.9,55.4,28.88,WSW,248,0.0,0.0,98,0.00,,OVC006,0.00,VWS V14.01,2013-07-31 13:09:00,
2013-07-31 06:14:00,56.1,55.6,28.88,WSW,248,0.0,0.0,98,0.00,,OVC006,0.00,VWS V14.01,2013-07-31 13:14:00,
2013-07-31 06:19:00,56.3,55.8,28.88,WSW,248,0.0,0.0,98,0.00,,OVC006,0.00,VWS V14.01,2013-07-31 13:19:00,
2013-07-31 06:24:00,56.3,55.8,28.88,West,270,0.0,0.0,98,0.00,,OVC006,0.00,VWS V14.01,2013-07-31 13:24:00,
2013-07-31 06:29:00,56.5,55.9,28.91,West,270,0.0,0.0,98,0.00,,OVC006,0.00,VWS V14.01,2013-07-31 13:29:00,
2013-07-31 06:34:00,56.7,56.1,28.91,West,270,0.0,0.0,98,0.00,,OVC006,0.00,VWS V14.01,2013-07-31 13:34:00,
2013-07-31 06:39:00,56.8,56.3,28.91,WNW,292,0.0,0.0,98,0.00,,OVC006,0.00,VWS V14.01,2013-07-31 13:39:00,
2013-07-31 06:44:00,57.0,56.5,28.91,WSW,248,2.7,2.7,98,0.00,,OVC006,0.00,VWS V14.01,2013-07-31 13:44:00,
2013-07-31 06:49:00,57.2,56.6,28.91,NNE,22,1.6,1.6,98,0.00,,OVC006,0.00,VWS V14.01,2013-07-31 13:49:00,
2013-07-31 06:54:00,57.2,56.6,28.91,NW,315,1.6,1.6,98,0.00,,OVC006,0.00,VWS V14.01,2013-07-31 13:54:00,
2013-07-31 06:59:00,57.2,56.6,28.91,NNW,338,0.0,0.0,98,0.00,,OVC006,0.00,VWS V14.01,2013-07-31 13:59:00,
2013-07-31 07:04:00,57.4,56.8,28.91,NNW,338,0.0,0.0,98,0.00,,OVC005,0.00,VWS V14.01,2013-07-31 14:04:00,
2013-07-31 07:09:00,57.6,57.0,28.91,WSW,248,0.0,0.0,98,0.00,,OVC005,0.00,VWS V14.01,2013-07-31 14:09:00,
2013-07-31 07:14:00,57.6,57.0,28.91,WSW,248,0.0,0.0,98,0.00,,OVC005,0.00,VWS V14.01,2013-07-31 14:14:00,
2013-07-31 07:19:00,57.6,57.0,28.91,WSW,248,0.0,0.0,98,0.00,,OVC005,0.00,VWS V14.01,2013-07-31 14:19:00,
2013-07-31 07:24:00,57.7,57.2,28.91,WSW,248,0.0,0.0,98,0.00,,OVC005,0.00,VWS V14.01,2013-07-31 14:24:00,
2013-07-31 07:29:00,57.9,57.4,28.91,West,270,0.0,0.0,98,0.00,,OVC005,0.00,VWS V14.01,2013-07-31 14:29:00,
2013-07-31 07:34:00,57.9,57.4,28.91,West,270,0.0,0.0,98,0.00,,OVC005,0.00,VWS V14.01,2013-07-31 14:34:00,
2013-07-31 07:39:00,58.1,57.5,28.91,SW,225,0.0,0.0,98,0.00,,OVC005,0.00,VWS V14.01,2013-07-31 14:39:00,
2013-07-31 07:44:00,58.3,57.7,28.91,SW,225,0.0,0.0,98,0.00,,OVC005,0.00,VWS V14.01,2013-07-31 14:44:00,
2013-07-31 07:49:00,58.6,58.1,28.88,SW,225,0.0,0.0,98,0.00,,OVC005,0.00,VWS V14.01,2013-07-31 14:49:00,
2013-07-31 07:54:00,58.8,58.3,28.88,ENE,68,1.1,1.1,98,0.00,,OVC005,0.00,VWS V14.01,2013-07-31 14:54:00,
2013-07-31 07:59:00,58.8,58.3,28.88,ENE,68,1.6,1.6,98,0.00,,OVC005,0.00,VWS V14.01,2013-07-31 14:59:00,
2013-07-31 08:04:00,59.0,58.4,28.88,North,0,2.0,2.0,98,0.00,,OVC006,0.00,VWS V14.01,2013-07-31 15:04:00,
2013-07-31 08:09:00,59.0,58.4,28.88,NNE,22,0.0,0.0,98,0.00,,OVC006,0.00,VWS V14.01,2013-07-31 15:09:00,
2013-07-31 08:14:00,59.2,58.6,28.88,SSE,158,0.0,0.0,98,0.00,,OVC006,0.00,VWS V14.01,2013-07-31 15:14:00,
2013-07-31 08:19:00,59.4,58.8,28.91,ESE,112,0.0,0.0,98,0.00,,OVC006,0.00,VWS V14.01,2013-07-31 15:19:00,
2013-07-31 08:24:00,59.4,58.8,28.91,SE,135,0.0,0.0,98,0.00,,OVC006,0.00,VWS V14.01,2013-07-31 15:24:00,
2013-07-31 08:29:00,59.4,58.8,28.91,East,90,0.0,0.0,98,0.00,,OVC006,0.00,VWS V14.01,2013-07-31 15:29:00,
2013-07-31 08:34:00,59.7,58.9,28.88,East,90,0.0,0.0,97,0.00,,OVC006,0.00,VWS V14.01,2013-07-31 15:34:00,
2013-07-31 08:39:00,59.9,59.0,28.88,East,90,0.0,0.0,97,0.00,,OVC006,0.00,VWS V14.01,2013-07-31 15:39:00,
2013-07-31 08:44:00,60.4,59.6,28.88,South,180,0.9,0.9,97,0.00,,OVC006,0.00,VWS V14.01,2013-07-31 15:44:00,
2013-07-31 08:49:00,61.2,60.0,28.88,WNW,292,0.0,0.0,96,0.00,,OVC006,0.00,VWS V14.01,2013-07-31 15:49:00,
2013-07-31 08:54:00,61.5,60.4,28.88,NNW,338,1.6,1.6,96,0.00,,OVC006,0.00,VWS V14.01,2013-07-31 15:54:00,
2013-07-31 08:59:00,62.2,61.1,28.88,WNW,292,0.0,0.0,96,0.00,,OVC006,0.00,VWS V14.01,2013-07-31 15:59:00,
2013-07-31 09:04:00,63.3,61.6,28.88,ENE,68,1.3,1.3,94,0.00,,OVC006,0.00,VWS V14.01,2013-07-31 16:04:00,
2013-07-31 09:09:00,64.2,62.5,28.88,NE,45,2.5,2.5,94,0.00,,OVC006,0.00,VWS V14.01,2013-07-31 16:09:00,
2013-07-31 09:14:00,64.0,61.4,28.88,North,0,2.0,2.0,91,0.00,,OVC006,0.00,VWS V14.01,2013-07-31 16:14:00,
2013-07-31 09:19:00,65.1,60.8,28.88,East,90,3.1,3.1,86,0.00,,OVC006,0.00,VWS V14.01,2013-07-31 16:19:00,
2013-07-31 09:24:00,64.9,59.7,28.88,ENE,68,0.9,0.9,83,0.00,,OVC006,0.00,VWS V14.01,2013-07-31 16:24:00,
2013-07-31 09:29:00,66.0,61.4,28.88,South,180,1.1,1.1,85,0.00,,OVC006,0.00,VWS V14.01,2013-07-31 16:29:00,
2013-07-31 09:34:00,67.6,62.6,28.88,ENE,68,1.1,1.1,84,0.00,,OVC006,0.00,VWS V14.01,2013-07-31 16:34:00,
2013-07-31 09:39:00,68.4,62.0,28.88,ENE,68,2.2,2.2,80,0.00,,OVC006,0.00,VWS V14.01,2013-07-31 16:39:00,
2013-07-31 09:44:00,69.6,62.8,28.88,East,90,1.1,1.1,79,0.00,,OVC006,0.00,VWS V14.01,2013-07-31 16:44:00,
2013-07-31 09:49:00,71.2,62.2,28.88,SE,135,0.9,0.9,73,0.00,,OVC006,0.00,VWS V14.01,2013-07-31 16:49:00,
2013-07-31 09:54:00,71.1,60.4,28.88,East,90,2.5,2.5,69,0.00,,OVC006,0.00,VWS V14.01,2013-07-31 16:54:00,
2013-07-31 09:59:00,71.6,61.3,28.88,SE,135,1.3,1.3,70,0.00,,OVC006,0.00,VWS V14.01,2013-07-31 16:59:00,
2013-07-31 10:04:00,73.4,60.9,28.88,NE,45,2.0,2.0,65,0.00,,,0.00,VWS V14.01,2013-07-31 17:04:00,
2013-07-31 10:09:00,73.4,61.4,28.88,SSW,202,1.1,1.1,66,0.00,,,0.00,VWS V14.01,2013-07-31 17:09:00,
2013-07-31 10:14:00,73.6,61.5,28.88,NNE,22,1.3,1.3,66,0.00,,,0.00,VWS V14.01,2013-07-31 17:14:00,
2013-07-31 10:19:00,73.4,60.0,28.88,NE,45,2.5,2.5,63,0.00,,,0.00,VWS V14.01,2013-07-31 17:19:00,
2013-07-31 10:24:00,74.5,61.5,28.88,SSW,202,1.6,1.6,64,0.00,,,0.00,VWS V14.01,2013-07-31 17:24:00,
2013-07-31 10:29:00,73.9,60.1,28.88,ESE,112,1.3,1.3,62,0.00,,,0.00,VWS V14.01,2013-07-31 17:29:00,
2013-07-31 10:34:00,72.3,59.5,28.85,NNW,338,1.6,1.6,64,0.00,,,0.00,VWS V14.01,2013-07-31 17:34:00,
2013-07-31 10:39:00,71.6,59.2,28.85,NNW,338,1.6,1.6,65,0.00,,,0.00,VWS V14.01,2013-07-31 17:39:00,
2013-07-31 10:44:00,72.0,60.0,28.85,NNW,338,1.6,1.6,66,0.00,,,0.00,VWS V14.01,2013-07-31 17:44:00,
2013-07-31 10:49:00,71.2,59.7,28.88,NW,315,2.7,2.7,67,0.00,,,0.00,VWS V14.01,2013-07-31 17:49:00,
2013-07-31 10:54:00,71.6,60.5,28.88,SSE,158,2.0,2.0,68,0.00,,,0.00,VWS V14.01,2013-07-31 17:54:00,
2013-07-31 10:59:00,71.1,60.0,28.88,SSW,202,3.4,3.4,68,0.00,,,0.00,VWS V14.01,2013-07-31 17:59:00,
2013-07-31 11:04:00,71.8,59.8,28.85,SSW,202,3.6,3.6,66,0.00,,OVC008,0.00,VWS V14.01,2013-07-31 18:04:00,
2013-07-31 11:09:00,70.9,59.4,28.85,NE,45,2.2,2.2,67,0.00,,OVC008,0.00,VWS V14.01,2013-07-31 18:09:00,
2013-07-31 11:14:00,71.6,60.5,28.85,SW,225,2.2,2.2,68,0.00,,OVC008,0.00,VWS V14.01,2013-07-31 18:14:00,
2013-07-31 11:19:00,72.3,61.2,28.85,NNW,338,1.3,1.3,68,0.00,,OVC008,0.00,VWS V14.01,2013-07-31 18:19:00,
2013-07-31 11:24:00,71.1,59.1,28.85,North,0,3.1,3.1,66,0.00,,OVC008,0.00,VWS V14.01,2013-07-31 18:24:00,
2013-07-31 11:29:00,70.9,59.8,28.85,SW,225,2.0,2.0,68,0.00,,OVC008,0.00,VWS V14.01,2013-07-31 18:29:00,
2013-07-31 11:34:00,70.5,59.9,28.85,NNW,338,3.1,3.1,69,0.00,,OVC008,0.00,VWS V14.01,2013-07-31 18:34:00,
2013-07-31 11:39:00,70.0,59.8,28.85,SSW,202,1.6,1.6,70,0.00,,OVC008,0.00,VWS V14.01,2013-07-31 18:39:00,
2013-07-31 11:44:00,70.0,59.8,28.85,NE,45,0.0,0.0,70,0.00,,OVC008,0.00,VWS V14.01,2013-07-31 18:44:00,
2013-07-31 11:49:00,69.4,59.6,28.85,NW,315,1.6,1.6,71,0.00,,OVC008,0.00,VWS V14.01,2013-07-31 18:49:00,
2013-07-31 11:54:00,70.2,59.9,28.85,North,0,6.7,6.7,70,0.00,,OVC008,0.00,VWS V14.01,2013-07-31 18:54:00,
2013-07-31 11:59:00,70.5,60.3,28.85,NE,45,4.0,4.0,70,0.00,,OVC008,0.00,VWS V14.01,2013-07-31 18:59:00,
2013-07-31 12:04:00,70.9,60.2,28.85,WNW,292,3.6,3.6,69,0.00,,OVC012,0.00,VWS V14.01,2013-07-31 19:04:00,
2013-07-31 12:09:00,71.1,60.8,28.85,NE,45,3.6,3.6,70,0.00,,OVC012,0.00,VWS V14.01,2013-07-31 19:09:00,
2013-07-31 12:14:00,71.4,60.7,28.85,NE,45,4.0,4.0,69,0.00,,OVC012,0.00,VWS V14.01,2013-07-31 19:14:00,
2013-07-31 12:19:00,70.9,60.2,28.85,NE,45,4.7,4.7,69,0.00,,OVC012,0.00,VWS V14.01,2013-07-31 19:19:00,
2013-07-31 12:24:00,71.1,60.8,28.85,NE,45,5.6,5.6,70,0.00,,OVC012,0.00,VWS V14.01,2013-07-31 19:24:00,
2013-07-31 12:28:00,71.6,60.9,28.85,North,0,4.9,4.9,69,0.00,,OVC012,0.00,VWS V14.01,2013-07-31 19:28:00,
2013-07-31 12:33:00,70.7,60.0,28.85,NE,45,6.0,6.0,69,0.00,,OVC012,0.00,VWS V14.01,2013-07-31 19:33:00,
2013-07-31 12:38:00,69.6,59.8,28.85,North,0,3.4,3.4,71,0.00,,OVC012,0.00,VWS V14.01,2013-07-31 19:38:00,
2013-07-31 12:43:00,69.8,59.6,28.85,ENE,68,5.4,5.4,70,0.00,,OVC012,0.00,VWS V14.01,2013-07-31 19:43:00,
2013-07-31 12:48:00,69.4,59.6,28.85,North,0,3.6,3.6,71,0.00,,OVC012,0.00,VWS V14.01,2013-07-31 19:48:00,
2013-07-31 12:54:00,69.3,60.2,28.85,NE,45,2.7,2.7,73,0.00,,OVC012,0.00,VWS V14.01,2013-07-31 19:54:00,
2013-07-31 12:59:00,69.6,60.2,28.85,NW,315,3.1,3.1,72,0.00,,OVC012,0.00,VWS V14.01,2013-07-31 19:59:00,
2013-07-31 13:04:00,70.3,60.1,28.85,NNW,338,2.2,2.2,70,0.00,,,0.00,VWS V14.01,2013-07-31 20:04:00,
2013-07-31 13:09:00,70.5,60.3,28.85,South,180,2.0,2.0,70,0.00,,,0.00,VWS V14.01,2013-07-31 20:09:00,
2013-07-31 13:14:00,70.3,59.7,28.85,NNE,22,2.0,2.0,69,0.00,,,0.00,VWS V14.01,2013-07-31 20:14:00,
2013-07-31 13:19:00,69.6,59.8,28.85,NW,315,0.9,0.9,71,0.00,,,0.00,VWS V14.01,2013-07-31 20:19:00,
2013-07-31 13:23:00,69.4,59.6,28.85,NE,45,3.8,3.8,71,0.00,,,0.00,VWS V14.01,2013-07-31 20:23:00,
2013-07-31 13:28:00,68.7,59.3,28.85,NNE,22,6.5,6.5,72,0.00,,,0.00,VWS V14.01,2013-07-31 20:28:00,
2013-07-31 13:33:00,68.0,59.4,28.85,North,0,5.8,5.8,74,0.00,,,0.00,VWS V14.01,2013-07-31 20:33:00,
2013-07-31 13:38:00,68.0,59.4,28.85,SSE,158,2.9,2.9,74,0.00,,,0.00,VWS V14.01,2013-07-31 20:38:00,
2013-07-31 13:43:00,67.6,59.8,28.85,NW,315,5.4,5.4,76,0.00,,,0.00,VWS V14.01,2013-07-31 20:43:00,
2013-07-31 13:48:00,68.2,59.6,28.85,SSW,202,0.0,0.0,74,0.00,,,0.00,VWS V14.01,2013-07-31 20:48:00,
2013-07-31 13:53:00,68.9,59.9,28.85,SW,225,2.7,2.7,73,0.00,,,0.00,VWS V14.01,2013-07-31 20:53:00,
2013-07-31 13:58:00,68.9,59.9,28.85,WSW,248,2.0,2.0,73,0.00,,,0.00,VWS V14.01,2013-07-31 20:58:00,
2013-07-31 14:03:00,70.0,60.9,28.85,NE,45,5.8,5.8,73,0.00,,,0.00,VWS V14.01,2013-07-31 21:03:00,
2013-07-31 14:08:00,70.0,60.5,28.85,SSE,158,3.8,3.8,72,0.00,,,0.00,VWS V14.01,2013-07-31 21:08:00,
2013-07-31 14:13:00,69.4,59.6,28.85,NW,315,4.9,4.9,71,0.00,,,0.00,VWS V14.01,2013-07-31 21:13:00,
2013-07-31 14:18:00,69.6,60.2,28.85,WSW,248,2.7,2.7,72,0.00,,,0.00,VWS V14.01,2013-07-31 21:18:00,
2013-07-31 14:23:00,70.2,60.7,28.85,WSW,248,3.4,3.4,72,0.00,,,0.00,VWS V14.01,2013-07-31 21:23:00,
2013-07-31 14:28:00,70.5,60.7,28.85,West,270,1.6,1.6,71,0.00,,,0.00,VWS V14.01,2013-07-31 21:28:00,
2013-07-31 14:33:00,69.4,59.2,28.82,ENE,68,2.5,2.5,70,0.00,,,0.00,VWS V14.01,2013-07-31 21:33:00,
2013-07-31 14:38:00,68.7,59.3,28.82,NW,315,4.3,4.3,72,0.00,,,0.00,VWS V14.01,2013-07-31 21:38:00,
2013-07-31 14:43:00,68.5,59.5,28.82,ENE,68,2.2,2.2,73,0.00,,,0.00,VWS V14.01,2013-07-31 21:43:00,
2013-07-31 14:48:00,68.2,59.2,28.85,NE,45,2.5,2.5,73,0.00,,,0.00,VWS V14.01,2013-07-31 21:48:00,
2013-07-31 14:53:00,68.2,60.0,28.85,NW,315,1.3,1.3,75,0.00,,,0.00,VWS V14.01,2013-07-31 21:53:00,
2013-07-31 14:58:00,68.2,59.6,28.85,NE,45,1.3,1.3,74,0.00,,,0.00,VWS V14.01,2013-07-31 21:58:00,
2013-07-31 15:03:00,68.0,59.4,28.85,West,270,2.0,2.0,74,0.00,,,0.00,VWS V14.01,2013-07-31 22:03:00,
2013-07-31 15:08:00,68.2,60.0,28.85,WSW,248,2.9,2.9,75,0.00,,,0.00,VWS V14.01,2013-07-31 22:08:00,
2013-07-31 15:13:00,68.4,60.1,28.85,South,180,2.0,2.0,75,0.00,,,0.00,VWS V14.01,2013-07-31 22:13:00,
2013-07-31 15:18:00,68.4,60.5,28.85,WSW,248,2.7,2.7,76,0.00,,,0.00,VWS V14.01,2013-07-31 22:18:00,
2013-07-31 15:23:00,67.8,60.7,28.85,WNW,292,4.7,4.7,78,0.00,,,0.00,VWS V14.01,2013-07-31 22:23:00,
2013-07-31 15:28:00,67.6,61.3,28.85,NNW,338,2.5,2.5,80,0.00,,,0.00,VWS V14.01,2013-07-31 22:28:00,
2013-07-31 15:33:00,67.8,61.4,28.82,NNW,338,1.1,1.1,80,0.00,,,0.00,VWS V14.01,2013-07-31 22:33:00,
2013-07-31 15:38:00,68.4,62.0,28.82,WSW,248,6.5,6.5,80,0.00,,,0.00,VWS V14.01,2013-07-31 22:38:00,
2013-07-31 15:43:00,67.8,60.0,28.82,SSW,202,5.6,5.6,76,0.00,,,0.00,VWS V14.01,2013-07-31 22:43:00,
2013-07-31 15:48:00,67.6,60.5,28.85,NNE,22,4.3,4.3,78,0.00,,,0.00,VWS V14.01,2013-07-31 22:48:00,
2013-07-31 15:53:00,67.5,60.0,28.85,SSE,158,0.0,0.0,77,0.00,,,0.00,VWS V14.01,2013-07-31 22:53:00,
2013-07-31 15:58:00,66.9,59.5,28.85,NNW,338,2.7,2.7,77,0.00,,,0.00,VWS V14.01,2013-07-31 22:58:00,
2013-07-31 16:03:00,67.3,60.2,28.85,NE,45,2.7,2.7,78,0.00,,CLR,0.00,VWS V14.01,2013-07-31 23:03:00,
2013-07-31 16:08:00,67.6,60.5,28.85,ENE,68,2.5,2.5,78,0.00,,CLR,0.00,VWS V14.01,2013-07-31 23:08:00,
2013-07-31 16:13:00,68.0,60.5,28.85,SSE,158,2.9,2.9,77,0.00,,CLR,0.00,VWS V14.01,2013-07-31 23:13:00,
2013-07-31 16:18:00,68.2,60.7,28.85,NE,45,0.0,0.0,77,0.00,,CLR,0.00,VWS V14.01,2013-07-31 23:18:00,
2013-07-31 16:23:00,68.9,61.4,28.85,NNW,338,0.0,0.0,77,0.00,,CLR,0.00,VWS V14.01,2013-07-31 23:23:00,
2013-07-31 16:28:00,69.3,61.8,28.85,WSW,248,0.0,0.0,77,0.00,,CLR,0.00,VWS V14.01,2013-07-31 23:28:00,
2013-07-31 16:33:00,69.3,61.0,28.82,NNE,22,0.0,0.0,75,0.00,,CLR,0.00,VWS V14.01,2013-07-31 23:33:00,
2013-07-31 16:38:00,70.0,61.3,28.82,SE,135,1.3,1.3,74,0.00,,CLR,0.00,VWS V14.01,2013-07-31 23:38:00,
2013-07-31 16:43:00,70.3,60.5,28.82,SSW,202,1.3,1.3,71,0.00,,CLR,0.00,VWS V14.01,2013-07-31 23:43:00,
2013-07-31 16:48:00,70.3,60.5,28.82,NNW,338,2.0,2.0,71,0.00,,CLR,0.00,VWS V14.01,2013-07-31 23:48:00,
2013-07-31 16:53:00,70.9,61.0,28.82,SW,225,0.0,0.0,71,0.00,,CLR,0.00,VWS V14.01,2013-07-31 23:53:00,
2013-07-31 16:58:00,71.4,61.5,28.82,WSW,248,1.1,1.1,71,0.00,,CLR,0.00,VWS V14.01,2013-07-31 23:58:00,
2013-07-31 17:03:00,71.1,60.8,28.85,NNW,338,3.4,3.4,70,0.00,,CLR,0.00,VWS V14.01,2013-08-01 00:03:00,
2013-07-31 17:08:00,70.2,60.3,28.85,NNE,22,2.2,2.2,71,0.00,,CLR,0.00,VWS V14.01,2013-08-01 00:08:00,
2013-07-31 17:13:00,69.8,60.0,28.85,NW,315,3.6,3.6,71,0.00,,CLR,0.00,VWS V14.01,2013-08-01 00:13:00,
2013-07-31 17:18:00,70.0,60.5,28.82,NW,315,2.9,2.9,72,0.00,,CLR,0.00,VWS V14.01,2013-08-01 00:18:00,
2013-07-31 17:23:00,69.4,60.0,28.82,SSW,202,2.5,2.5,72,0.00,,CLR,0.00,VWS V14.01,2013-08-01 00:23:00,
2013-07-31 17:28:00,69.4,60.4,28.82,NNE,22,1.3,1.3,73,0.00,,CLR,0.00,VWS V14.01,2013-08-01 00:28:00,
2013-07-31 17:33:00,69.4,60.8,28.82,NNE,22,2.7,2.7,74,0.00,,CLR,0.00,VWS V14.01,2013-08-01 00:33:00,
2013-07-31 17:38:00,68.4,59.8,28.82,WNW,292,2.5,2.5,74,0.00,,CLR,0.00,VWS V14.01,2013-08-01 00:38:00,
2013-07-31 17:43:00,68.2,60.3,28.82,NNE,22,3.6,3.6,76,0.00,,CLR,0.00,VWS V14.01,2013-08-01 00:43:00,
2013-07-31 17:48:00,67.8,60.3,28.85,North,0,3.6,3.6,77,0.00,,CLR,0.00,VWS V14.01,2013-08-01 00:48:00,
2013-07-31 17:53:00,67.6,60.5,28.85,NW,315,0.9,0.9,78,0.00,,CLR,0.00,VWS V14.01,2013-08-01 00:53:00,
2013-07-31 17:58:00,67.8,60.7,28.85,NNW,338,3.6,3.6,78,0.00,,CLR,0.00,VWS V14.01,2013-08-01 00:58:00,
2013-07-31 18:03:00,68.0,60.5,28.82,NNW,338,2.0,2.0,77,0.00,,,0.00,VWS V14.01,2013-08-01 01:03:00,
2013-07-31 18:08:00,68.2,61.1,28.82,West,270,0.0,0.0,78,0.00,,,0.00,VWS V14.01,2013-08-01 01:08:00,
2013-07-31 18:13:00,68.4,61.2,28.82,ENE,68,0.0,0.0,78,0.00,,,0.00,VWS V14.01,2013-08-01 01:13:00,
2013-07-31 18:18:00,68.2,61.1,28.82,North,0,2.7,2.7,78,0.00,,,0.00,VWS V14.01,2013-08-01 01:18:00,
2013-07-31 18:23:00,68.7,61.2,28.82,ENE,68,7.2,7.2,77,0.00,,,0.00,VWS V14.01,2013-08-01 01:23:00,
2013-07-31 18:28:00,69.6,62.1,28.82,NE,45,3.1,3.1,77,0.00,,,0.00,VWS V14.01,2013-08-01 01:28:00,
2013-07-31 18:33:00,69.8,61.5,28.82,North,0,2.5,2.5,75,0.00,,,0.00,VWS V14.01,2013-08-01 01:33:00,
2013-07-31 18:38:00,69.3,61.0,28.82,SW,225,0.0,0.0,75,0.00,,,0.00,VWS V14.01,2013-08-01 01:38:00,
2013-07-31 18:43:00,70.0,62.1,28.82,NNW,338,0.9,0.9,76,0.00,,,0.00,VWS V14.01,2013-08-01 01:43:00,
2013-07-31 18:48:00,70.3,61.7,28.82,NNE,22,2.2,2.2,74,0.00,,,0.00,VWS V14.01,2013-08-01 01:48:00,
2013-07-31 18:53:00,70.5,61.5,28.82,NE,45,0.0,0.0,73,0.00,,,0.00,VWS V14.01,2013-08-01 01:53:00,
2013-07-31 18:58:00,70.7,62.0,28.82,SW,225,0.0,0.0,74,0.00,,,0.00,VWS V14.01,2013-08-01 01:58:00,
2013-07-31 19:03:00,70.0,60.9,28.82,NNW,338,0.9,0.9,73,0.00,,CLR,0.00,VWS V14.01,2013-08-01 02:03:00,
2013-07-31 19:08:00,69.6,61.3,28.82,ENE,68,0.0,0.0,75,0.00,,CLR,0.00,VWS V14.01,2013-08-01 02:08:00,
2013-07-31 19:13:00,68.7,60.9,28.82,NNE,22,3.1,3.1,76,0.00,,CLR,0.00,VWS V14.01,2013-08-01 02:13:00,
2013-07-31 19:18:00,68.2,61.1,28.82,NNE,22,2.0,2.0,78,0.00,,CLR,0.00,VWS V14.01,2013-08-01 02:18:00,
2013-07-31 19:23:00,68.2,61.1,28.82,NE,45,0.0,0.0,78,0.00,,CLR,0.00,VWS V14.01,2013-08-01 02:23:00,
2013-07-31 19:28:00,68.2,61.1,28.82,NE,45,0.0,0.0,78,0.00,,CLR,0.00,VWS V14.01,2013-08-01 02:28:00,
2013-07-31 19:33:00,67.8,61.4,28.79,WNW,292,0.0,0.0,80,0.00,,CLR,0.00,VWS V14.01,2013-08-01 02:33:00,
2013-07-31 19:38:00,67.5,61.8,28.79,West,270,0.0,0.0,82,0.00,,CLR,0.00,VWS V14.01,2013-08-01 02:38:00,
2013-07-31 19:43:00,67.5,61.8,28.79,West,270,0.0,0.0,82,0.00,,CLR,0.00,VWS V14.01,2013-08-01 02:43:00,
2013-07-31 19:48:00,67.1,61.8,28.82,West,270,0.0,0.0,83,0.00,,CLR,0.00,VWS V14.01,2013-08-01 02:48:00,
2013-07-31 19:53:00,67.1,62.1,28.82,West,270,0.0,0.0,84,0.00,,CLR,0.00,VWS V14.01,2013-08-01 02:53:00,
2013-07-31 19:58:00,66.9,61.9,28.82,West,270,0.0,0.0,84,0.00,,CLR,0.00,VWS V14.01,2013-08-01 02:58:00,
2013-07-31 20:03:00,66.7,62.1,28.82,West,270,0.0,0.0,85,0.00,,CLR,0.00,VWS V14.01,2013-08-01 03:03:00,
2013-07-31 20:08:00,66.2,61.6,28.82,West,270,0.0,0.0,85,0.00,,CLR,0.00,VWS V14.01,2013-08-01 03:08:00,
2013-07-31 20:13:00,65.7,61.4,28.82,West,270,0.0,0.0,86,0.00,,CLR,0.00,VWS V14.01,2013-08-01 03:13:00,
2013-07-31 20:18:00,65.3,61.0,28.82,WSW,248,0.0,0.0,86,0.00,,CLR,0.00,VWS V14.01,2013-08-01 03:18:00,
2013-07-31 20:23:00,64.4,60.8,28.82,SW,225,1.3,1.3,88,0.00,,CLR,0.00,VWS V14.01,2013-08-01 03:23:00,
2013-07-31 20:28:00,63.9,60.6,28.82,WSW,248,0.0,0.0,89,0.00,,CLR,0.00,VWS V14.01,2013-08-01 03:28:00,
2013-07-31 20:33:00,63.3,60.0,28.82,WSW,248,0.0,0.0,89,0.00,,CLR,0.00,VWS V14.01,2013-08-01 03:33:00,
2013-07-31 20:38:00,62.6,59.3,28.82,WSW,248,0.0,0.0,89,0.00,,CLR,0.00,VWS V14.01,2013-08-01 03:38:00,
2013-07-31 20:43:00,62.1,59.1,28.82,East,90,1.1,1.1,90,0.00,,CLR,0.00,VWS V14.01,2013-08-01 03:43:00,
2013-07-31 20:48:00,61.7,59.4,28.82,South,180,0.0,0.0,92,0.00,,CLR,0.00,VWS V14.01,2013-08-01 03:48:00,
2013-07-31 20:53:00,61.3,59.0,28.82,South,180,1.3,1.3,92,0.00,,CLR,0.00,VWS V14.01,2013-08-01 03:53:00,
2013-07-31 20:58:00,60.8,58.5,28.82,South,180,0.0,0.0,92,0.00,,CLR,0.00,VWS V14.01,2013-08-01 03:58:00,
2013-07-31 21:01:00,60.6,58.3,28.82,South,180,0.0,0.0,92,0.00,,,0.00,VWS V14.01,2013-08-01 04:01:00,
2013-07-31 21:02:00,60.6,58.3,28.82,South,180,0.0,0.0,92,0.00,,,0.00,VWS V14.01,2013-08-01 04:02:00,
2013-07-31 21:07:00,60.3,58.2,28.82,SW,225,0.0,0.0,93,0.00,,,0.00,VWS V14.01,2013-08-01 04:07:00,
2013-07-31 21:12:00,59.9,57.6,28.82,SW,225,0.0,0.0,92,0.00,,,0.00,VWS V14.01,2013-08-01 04:12:00,
2013-07-31 21:17:00,59.5,57.5,28.82,WSW,248,1.3,1.3,93,0.00,,,0.00,VWS V14.01,2013-08-01 04:17:00,
2013-07-31 21:22:00,59.2,57.2,28.82,WSW,248,0.0,0.0,93,0.00,,,0.00,VWS V14.01,2013-08-01 04:22:00,
2013-07-31 21:27:00,59.0,57.0,28.82,WSW,248,0.0,0.0,93,0.00,,,0.00,VWS V14.01,2013-08-01 04:27:00,
2013-07-31 21:32:00,58.8,57.1,28.82,WSW,248,0.0,0.0,94,0.00,,,0.00,VWS V14.01,2013-08-01 04:32:00,
2013-07-31 21:37:00,58.8,57.1,28.82,WSW,248,0.0,0.0,94,0.00,,,0.00,VWS V14.01,2013-08-01 04:37:00,
2013-07-31 21:42:00,58.6,56.9,28.82,NNE,22,0.0,0.0,94,0.00,,,0.00,VWS V14.01,2013-08-01 04:42:00,
2013-07-31 21:47:00,58.6,57.2,28.82,SSW,202,0.0,0.0,95,0.00,,,0.00,VWS V14.01,2013-08-01 04:47:00,
2013-07-31 21:52:00,58.8,57.4,28.82,SW,225,0.0,0.0,95,0.00,,,0.00,VWS V14.01,2013-08-01 04:52:00,
2013-07-31 21:57:00,58.8,57.4,28.82,WSW,248,0.0,0.0,95,0.00,,,0.00,VWS V14.01,2013-08-01 04:57:00,
2013-07-31 22:02:00,59.2,58.0,28.82,WSW,248,0.0,0.0,96,0.00,,BKN014,0.00,VWS V14.01,2013-08-01 05:02:00,
2013-07-31 22:07:00,59.4,58.2,28.82,WSW,248,0.0,0.0,96,0.00,,BKN014,0.00,VWS V14.01,2013-08-01 05:07:00,
2013-07-31 22:12:00,59.5,58.4,28.82,WSW,248,0.0,0.0,96,0.00,,BKN014,0.00,VWS V14.01,2013-08-01 05:12:00,
2013-07-31 22:17:00,59.5,58.4,28.85,WSW,248,0.0,0.0,96,0.00,,BKN014,0.00,VWS V14.01,2013-08-01 05:17:00,
2013-07-31 22:22:00,59.7,58.6,28.85,WSW,248,0.0,0.0,96,0.00,,BKN014,0.00,VWS V14.01,2013-08-01 05:22:00,
2013-07-31 22:27:00,59.9,58.8,28.85,WSW,248,0.0,0.0,96,0.00,,BKN014,0.00,VWS V14.01,2013-08-01 05:27:00,
2013-07-31 22:32:00,60.1,58.9,28.82,WSW,248,0.0,0.0,96,0.00,,BKN014,0.00,VWS V14.01,2013-08-01 05:32:00,
2013-07-31 22:37:00,60.1,58.9,28.82,West,270,0.0,0.0,96,0.00,,BKN014,0.00,VWS V14.01,2013-08-01 05:37:00,
2013-07-31 22:42:00,60.3,59.1,28.82,West,270,0.0,0.0,96,0.00,,BKN014,0.00,VWS V14.01,2013-08-01 05:42:00,
2013-07-31 22:47:00,60.3,59.1,28.85,West,270,0.0,0.0,96,0.00,,BKN014,0.00,VWS V14.01,2013-08-01 05:47:00,
2013-07-31 22:52:00,60.4,59.3,28.85,West,270,0.0,0.0,96,0.00,,BKN014,0.00,VWS V14.01,2013-08-01 05:52:00,
2013-07-31 22:57:00,60.4,59.3,28.85,WSW,248,0.0,0.0,96,0.00,,BKN014,0.00,VWS V14.01,2013-08-01 05:57:00,
2013-07-31 23:02:00,60.6,59.5,28.82,WSW,248,0.0,0.0,96,0.00,,OVC012,0.00,VWS V14.01,2013-08-01 06:02:00,
2013-07-31 23:07:00,60.6,59.5,28.82,West,270,0.0,0.0,96,0.00,,OVC012,0.00,VWS V14.01,2013-08-01 06:07:00,
2013-07-31 23:12:00,60.8,59.7,28.82,NNE,22,0.0,0.0,96,0.00,,OVC012,0.00,VWS V14.01,2013-08-01 06:12:00,
2013-07-31 23:17:00,61.2,60.3,28.82,NNW,338,2.0,2.0,97,0.00,,OVC012,0.00,VWS V14.01,2013-08-01 06:17:00,
2013-07-31 23:22:00,61.3,60.5,28.82,North,0,2.5,2.5,97,0.00,,OVC012,0.00,VWS V14.01,2013-08-01 06:22:00,
2013-07-31 23:27:00,61.5,60.7,28.82,NE,45,1.3,1.3,97,0.00,,OVC012,0.00,VWS V14.01,2013-08-01 06:27:00,
2013-07-31 23:32:00,61.5,60.4,28.82,East,90,0.0,0.0,96,0.00,,OVC012,0.00,VWS V14.01,2013-08-01 06:32:00,
2013-07-31 23:37:00,61.5,60.4,28.82,ENE,68,1.3,1.3,96,0.00,,OVC012,0.00,VWS V14.01,2013-08-01 06:37:00,
2013-07-31 23:42:00,61.5,60.4,28.82,NE,45,0.0,0.0,96,0.00,,OVC012,0.00,VWS V14.01,2013-08-01 06:42:00,
2013-07-31 23:47:00,61.5,60.4,28.82,South,180,1.6,1.6,96,0.00,,OVC012,0.00,VWS V14.01,2013-08-01 06:47:00,
2013-07-31 23:52:00,61.5,60.4,28.82,South,180,0.0,0.0,96,0.00,,OVC012,0.00,VWS V14.01,2013-08-01 06:52:00,
2013-07-31 23:57:00,61.5,60.4,28.82,SW,225,1.1,1.1,96,0.00,,OVC012,0.00,VWS V14.01,2013-08-01 06:57:00,